| time (UTC) | temp F | wind direction | speed MPH | gust MPH | rain 1hr in | rain 24hr in | rain mn in | humidity % | barometer mb |
| 20260503050000 | 40 | 167 | 3.0 | 5.0 | 0.00 | 0.00 | 0.00 | 61 | 1016.4 |
| 20260503044958 | 41 | 198 | 3.0 | 6.0 | 0.00 | 0.00 | 0.00 | 58 | 1016.5 |
| 20260503042956 | 41 | 198 | 3.0 | 6.0 | 0.00 | 0.00 | 0.00 | 57 | 1016.5 |
| 20260503041958 | 41 | 188 | 3.0 | 5.0 | 0.00 | 0.00 | 0.00 | 57 | 1016.7 |
| 20260503040957 | 42 | 184 | 3.0 | 4.0 | 0.00 | 0.00 | 0.00 | 57 | 1016.9 |
| 20260503035959 | 42 | 207 | 2.0 | 5.0 | 0.00 | 0.00 | 0.00 | 57 | 1016.8 |
| 20260503034959 | 41 | 218 | 3.0 | 4.0 | 0.00 | 0.00 | 0.00 | 60 | 1016.9 |
| 20260503033958 | 41 | 202 | 2.0 | 5.0 | 0.00 | 0.00 | 0.00 | 61 | 1016.8 |
| 20260503032959 | 42 | 213 | 5.0 | 6.0 | 0.00 | 0.00 | 0.00 | 56 | 1016.9 |
| 20260503031001 | 40 | 188 | 1.0 | 3.0 | 0.00 | 0.00 | 0.00 | 62 | 1017.1 |
| 20260503030003 | 40 | 188 | 1.0 | 3.0 | 0.00 | 0.00 | 0.00 | 64 | 1017.2 |
| 20260503024958 | 40 | 188 | 2.0 | 3.0 | 0.00 | 0.00 | 0.00 | 65 | 1017.3 |
| 20260503023958 | 40 | 188 | 1.0 | 2.0 | 0.00 | 0.00 | 0.00 | 64 | 1017.2 |
| 20260503022959 | 40 | 188 | 1.0 | 4.0 | 0.00 | 0.00 | 0.00 | 62 | 1017.4 |
| 20260503022002 | 41 | 199 | 3.0 | 5.0 | 0.00 | 0.00 | 0.00 | 59 | 1017.4 |
| 20260503020959 | 40 | 224 | 3.0 | 5.0 | 0.00 | 0.00 | 0.00 | 60 | 1017.5 |
| 20260503015959 | 40 | 232 | 3.0 | 4.0 | 0.00 | 0.00 | 0.00 | 62 | 1017.4 |
| 20260503015003 | 40 | 232 | 3.0 | 5.0 | 0.00 | 0.00 | 0.00 | 62 | 1017.5 |
| 20260503012959 | 41 | 243 | 2.0 | 3.0 | 0.00 | 0.00 | 0.00 | 62 | 1017.2 |
| 20260503011958 | 41 | 243 | 3.0 | 4.0 | 0.00 | 0.00 | 0.00 | 61 | 1017.3 |
| 20260503010957 | 42 | 243 | 4.0 | 5.0 | 0.00 | 0.00 | 0.00 | 58 | 1017.3 |
| 20260503010003 | 43 | 243 | 3.0 | 4.0 | 0.00 | 0.00 | 0.00 | 56 | 1017.4 |
| 20260503005000 | 43 | 262 | 3.0 | 6.0 | 0.00 | 0.00 | 0.00 | 55 | 1017.3 |
| 20260503003959 | 44 | 275 | 2.0 | 6.0 | 0.00 | 0.00 | 0.00 | 56 | 1017.4 |
| 20260503002958 | 45 | 275 | 3.0 | 7.0 | 0.00 | 0.00 | 0.00 | 51 | 1017.1 |
| 20260503002000 | 46 | 271 | 5.0 | 8.0 | 0.00 | 0.00 | 0.00 | 49 | 1017.2 |
| 20260503001002 | 47 | 288 | 6.0 | 8.0 | 0.00 | 0.00 | 0.00 | 47 | 1017.1 |
| 20260503000003 | 47 | 288 | 7.0 | 11.0 | 0.00 | 0.00 | 0.00 | 45 | 1017.1 |
| 20260502235000 | 48 | 285 | 4.0 | 10.0 | 0.00 | 0.00 | 0.00 | 46 | 1017.2 |
| 20260502234001 | 48 | 292 | 9.0 | 12.0 | 0.00 | 0.00 | 0.00 | 43 | 1017.2 |
| 20260502232959 | 48 | 292 | 6.0 | 10.0 | 0.00 | 0.00 | 0.00 | 41 | 1017.3 |
| 20260502232000 | 49 | 315 | 6.0 | 11.0 | 0.00 | 0.00 | 0.00 | 41 | 1017.3 |
| 20260502231003 | 49 | 343 | 7.0 | 14.0 | 0.00 | 0.00 | 0.00 | 39 | 1017.3 |
| 20260502230003 | 49 | 281 | 10.0 | 15.0 | 0.00 | 0.00 | 0.00 | 41 | 1017.5 |
| 20260502224000 | 49 | 290 | 9.0 | 13.0 | 0.00 | 0.00 | 0.00 | 41 | 1017.5 |
| 20260502223002 | 49 | 307 | 10.0 | 17.0 | 0.00 | 0.00 | 0.00 | 39 | 1017.6 |
| 20260502222001 | 49 | 299 | 7.0 | 15.0 | 0.00 | 0.00 | 0.00 | 42 | 1017.7 |
| 20260502220958 | 49 | 342 | 10.0 | 17.0 | 0.00 | 0.00 | 0.00 | 38 | 1017.8 |
| 20260502220005 | 49 | 286 | 10.0 | 16.0 | 0.00 | 0.00 | 0.00 | 40 | 1017.8 |
| 20260502215000 | 49 | 323 | 11.0 | 19.0 | 0.00 | 0.00 | 0.00 | 42 | 1017.9 |
| 20260502214004 | 49 | 298 | 9.0 | 16.0 | 0.00 | 0.00 | 0.00 | 42 | 1017.9 |
| 20260502213002 | 49 | 292 | 10.0 | 17.0 | 0.00 | 0.00 | 0.00 | 41 | 1017.9 |
| 20260502212000 | 49 | 311 | 12.0 | 16.0 | 0.00 | 0.00 | 0.00 | 41 | 1017.9 |
| 20260502210958 | 49 | 343 | 12.0 | 18.0 | 0.00 | 0.00 | 0.00 | 45 | 1018.0 |
| 20260502210003 | 49 | 314 | 14.0 | 19.0 | 0.00 | 0.00 | 0.00 | 45 | 1018.0 |
| 20260502204959 | 50 | 334 | 10.0 | 16.0 | 0.00 | 0.00 | 0.00 | 47 | 1018.0 |
| 20260502202959 | 50 | 310 | 12.0 | 16.0 | 0.00 | 0.00 | 0.00 | 48 | 1018.2 |
| 20260502201957 | 49 | 342 | 12.0 | 18.0 | 0.00 | 0.00 | 0.00 | 45 | 1018.4 |
| 20260502201002 | 49 | 319 | 12.0 | 19.0 | 0.00 | 0.00 | 0.00 | 48 | 1018.4 |
| 20260502195959 | 49 | 274 | 13.0 | 20.0 | 0.00 | 0.00 | 0.00 | 44 | 1018.5 |
| 20260502195002 | 50 | 306 | 12.0 | 19.0 | 0.00 | 0.00 | 0.00 | 50 | 1018.6 |
| 20260502193959 | 49 | 325 | 13.0 | 21.0 | 0.00 | 0.00 | 0.00 | 46 | 1018.8 |
| 20260502192958 | 49 | 335 | 11.0 | 16.0 | 0.00 | 0.00 | 0.00 | 48 | 1018.9 |
| 20260502192003 | 49 | 301 | 10.0 | 16.0 | 0.00 | 0.00 | 0.00 | 50 | 1019.0 |
| 20260502190002 | 48 | 299 | 12.0 | 19.0 | 0.00 | 0.00 | 0.00 | 48 | 1019.0 |
| 20260502185002 | 48 | 317 | 13.0 | 18.0 | 0.00 | 0.00 | 0.00 | 49 | 1019.0 |
| 20260502183958 | 48 | 323 | 12.0 | 16.0 | 0.00 | 0.00 | 0.00 | 51 | 1019.1 |
| 20260502183002 | 47 | 329 | 10.0 | 16.0 | 0.00 | 0.00 | 0.00 | 55 | 1019.1 |
| 20260502182000 | 48 | 296 | 13.0 | 17.0 | 0.00 | 0.00 | 0.00 | 54 | 1019.2 |
| 20260502181001 | 47 | 300 | 7.0 | 15.0 | 0.00 | 0.00 | 0.00 | 51 | 1019.2 |
| 20260502164001 | 46 | 310 | 6.0 | 12.0 | 0.00 | 0.00 | 0.00 | 59 | 1020.0 |
| 20260502163001 | 46 | 316 | 7.0 | 14.0 | 0.00 | 0.00 | 0.00 | 58 | 1019.9 |
| 20260502161000 | 45 | 332 | 7.0 | 10.0 | 0.00 | 0.00 | 0.00 | 58 | 1020.2 |
| 20260502152000 | 43 | 341 | 5.0 | 10.0 | 0.00 | 0.00 | 0.00 | 59 | 1020.0 |
| 20260502150957 | 44 | 338 | 6.0 | 13.0 | 0.00 | 0.00 | 0.00 | 59 | 1020.1 |
| 20260502123001 | 37 | 5 | 5.0 | 9.0 | 0.00 | 0.00 | 0.00 | 82 | 1020.4 |
| 20260502122001 | 37 | 348 | 5.0 | 8.0 | 0.00 | 0.00 | 0.00 | 84 | 1020.4 |
| 20260502120957 | 36 | 161 | 3.0 | 8.0 | 0.00 | 0.00 | 0.00 | 86 | 1020.3 |
| 20260502114958 | 34 | 316 | 3.0 | 5.0 | 0.00 | 0.00 | 0.00 | 88 | 1020.2 |
| 20260502113958 | 33 | 282 | 0.0 | 0.0 | 0.00 | 0.00 | 0.00 | 89 | 1020.1 |
| 20260502110957 | 30 | 292 | 0.0 | 2.0 | 0.00 | 0.00 | 0.00 | 89 | 1019.9 |
| 20260502110002 | 31 | 67 | 0.0 | 1.0 | 0.00 | 0.00 | 0.00 | 89 | 1019.9 |
| 20260502105001 | 31 | 277 | 0.0 | 1.0 | 0.00 | 0.00 | 0.00 | 88 | 1019.9 |
| 20260502104001 | 31 | 302 | 0.0 | 2.0 | 0.00 | 0.00 | 0.00 | 85 | 1019.9 |
| 20260502102959 | 32 | 67 | 0.0 | 1.0 | 0.00 | 0.00 | 0.00 | 84 | 1019.9 |
| 20260502102001 | 33 | 67 | 0.0 | 0.0 | 0.00 | 0.00 | 0.00 | 84 | 1019.9 |
| 20260502100959 | 33 | 300 | 0.0 | 0.0 | 0.00 | 0.00 | 0.00 | 83 | 1019.9 |
| 20260502091000 | 34 | 300 | 1.0 | 3.0 | 0.00 | 0.00 | 0.00 | 83 | 1019.6 |
| 20260502070959 | 35 | 251 | 0.0 | 0.0 | 0.00 | 0.00 | 0.00 | 85 | 1019.2 |
| 20260502065957 | 35 | 251 | 0.0 | 0.0 | 0.00 | 0.00 | 0.00 | 85 | 1019.4 |
| 20260502064959 | 35 | 251 | 0.0 | 0.0 | 0.00 | 0.00 | 0.00 | 84 | 1019.4 |
| 20260502063002 | 35 | 251 | 0.0 | 0.0 | 0.00 | 0.00 | 0.00 | 85 | 1019.3 |
| 20260502061959 | 34 | 251 | 0.0 | 0.0 | 0.00 | 0.00 | 0.00 | 84 | 1019.4 |
| 20260502060958 | 34 | 251 | 0.0 | 0.0 | 0.00 | 0.00 | 0.00 | 86 | 1019.4 |
| 20260502055958 | 34 | 251 | 0.0 | 0.0 | 0.00 | 0.00 | 0.00 | 86 | 1019.4 |
| 20260502055003 | 34 | 251 | 0.0 | 0.0 | 0.00 | 0.00 | 0.00 | 86 | 1019.5 |
| 20260502054001 | 34 | 251 | 0.0 | 0.0 | 0.00 | 0.00 | 0.00 | 84 | 1019.4 |
| 20260502053001 | 34 | 251 | 0.0 | 0.0 | 0.00 | 0.00 | 0.00 | 83 | 1019.5 |
| 20260502051958 | 34 | 251 | 0.0 | 0.0 | 0.00 | 0.00 | 0.00 | 82 | 1019.5 |
| 20260502051003 | 35 | 251 | 0.0 | 0.0 | 0.00 | 0.00 | 0.00 | 80 | 1019.5 |